[[{"header":{"parameterUnit":"m.s-1","parameterCategory":1,"la1":30.2991,"la2":30.254,"lo1":-89.0895,"lo2":-89.0444,"dy":0.0017,"dx":0.0017,"nx":28,"ny":28,"refTime":"2023-10-11T09:00:00:Z","depth":0,"parameterNumber":2,"parameterNumberName":"U-component_of_WINDS"},"data":[0,0,0,0,0,0,0,0,0,0,0,0,0,0,0,0,0,0,0,0,0,0,0,0,0,0,0,0,0,0,0,0,0,0,0,0,0,0,0,0,0,0,0,0,0,0,0,0,0,0,0,0,0,0,0,0,0,0,-7.7457,-7.746,0,-7.7756,-7.7759,-7.7762,-7.7681,-7.7675,-7.7669,-7.7663,-7.7979,-7.7993,-7.8007,0,0,0,0,0,0,0,0,0,0,0,0,0,-7.6824,-7.6836,-7.7456,-7.746,-7.7464,-7.7755,-7.7759,-7.7763,-7.7682,-7.7674,-7.7667,-7.766,-7.7975,-7.7991,-7.8008,0,0,0,0,0,0,0,0,0,0,0,0,0,-7.7109,-7.684,-7.7456,-7.7458,-7.7461,-7.7754,-7.7759,-7.7764,-7.7683,-7.7674,-7.7665,-7.7657,-7.7969,-7.799,-7.8011,-7.8323,0,0,-7.8075,-7.8084,0,0,0,0,0,0,0,0,-7.7093,-7.7132,-7.7454,-7.7458,-7.7462,-7.7671,-7.7652,-7.7952,-7.7686,-7.7599,-7.7663,-7.7652,-7.7885,-7.7912,-7.7989,-7.8338,-7.8351,-7.8077,-7.809,-7.8099,-7.8105,0,0,0,0,0,0,0,-7.7073,-7.7119,-7.7575,-7.7459,-7.7464,-7.7447,-7.7478,-7.7709,-7.779,-7.7606,-7.7601,-7.7637,-7.7886,-7.7969,-7.7996,-7.8356,-7.8076,-7.8095,-7.8108,-7.8116,-7.8979,-7.8989,0,0,0,0,0,0,-7.7049,-7.7103,-7.7565,-7.7584,-7.7251,-7.7466,-7.75,-7.7614,-7.7787,-7.7804,-7.7644,-7.7632,-7.7937,-7.7971,-7.8007,-7.8386,-7.8099,-7.8119,-7.8131,-7.8969,-7.8982,-7.8993,0,0,0,0,0,0,-7.7036,-7.7091,-7.7553,-7.7342,-7.74,-7.7487,-7.7615,-7.7624,-7.7707,-7.7816,-7.7831,-7.7714,-7.7931,-7.7977,-7.8245,-7.8396,-7.8128,-7.8147,-7.8957,-7.8973,-7.8987,-7.9146,0,0,0,0,0,0,-7.7018,-7.7087,-7.7204,-7.7345,-7.7411,-7.7784,-7.7624,-7.7637,-7.7743,-7.7729,-7.7885,-7.7902,-7.7928,-7.8214,-7.8266,-7.842,-7.8164,-7.8944,-7.8964,-7.8982,-7.9128,-7.9165,-7.9196,0,0,0,0,0,-7.6996,-7.7238,-7.721,-7.7266,-7.7559,-7.7793,-7.7831,-7.7853,-7.7755,-7.7875,-7.7945,-7.7897,-7.837,-7.8242,-7.83,-7.8463,-7.8935,-7.8958,-7.8981,-7.9112,-7.9157,-7.9196,0,0,0,0,0,0,-7.7115,-7.7257,-7.7227,-7.7522,-7.7646,-7.7778,-7.7931,-7.79,-7.8056,-7.8038,-7.8061,-7.8097,-7.8372,-7.8443,-7.8298,-7.8775,-7.8639,-7.8674,-7.8719,-7.8763,-7.8796,-7.8775,-7.8181,0,0,0,0,0,-7.7175,-7.735,-7.7465,-7.7715,-7.7778,-7.7844,-7.7946,-7.7952,-7.8083,-7.8136,-7.8225,-7.8357,-7.8535,-7.8652,-7.8822,-7.9136,-7.9171,-7.9277,-7.9312,-7.9339,-7.9371,-7.9546,-7.9596,-7.9069,-7.9068,-7.9068,0,0,-7.7303,-7.7401,-7.7511,-7.7741,-7.7837,-7.8022,-7.7889,-7.8089,-7.8227,-7.8167,-7.8426,-7.8496,-7.8644,-7.8938,-7.9071,-7.9006,-7.9524,-7.9369,-7.939,-7.9407,-7.9575,-7.9625,-7.9669,-7.9084,-7.9081,-7.9079,0,0,-7.7629,-7.7719,-7.7938,-7.8037,-7.8184,-7.8226,-7.8279,-7.8417,-7.8461,-7.8719,-7.8679,-7.8845,-7.9151,-7.9259,-7.9354,-7.9722,-7.9686,-7.9777,-7.9959,-8.0129,-8.0171,-8.0208,-8.0342,-8.039,-7.9808,-7.9808,-7.9809,0,-7.7769,-7.8042,-7.8055,-7.826,-7.8364,-7.8314,-7.8539,-7.8635,-7.8832,-7.8907,-7.8829,-7.9213,-7.9309,-7.9629,-7.9718,-7.9796,-7.986,-7.9761,-8.0163,-8.02,-8.0235,-8.0364,-8.0414,-7.9819,-7.9818,-7.9817,-7.9816,0,-7.8209,-7.8399,-7.8559,-7.8747,-7.8869,-7.9082,-7.9131,-7.9253,-7.9249,-7.93,-7.9567,-7.968,-7.9873,-7.9949,-7.9947,-8.027,-8.0225,-8.0155,-8.0019,-8.0295,-8.0417,-8.0466,-7.9834,-7.983,-7.9827,-7.9824,0,0,-7.8621,-7.8813,-7.8872,-7.8957,-7.9116,-7.9265,-7.9477,-7.9663,-7.9769,-7.9907,-8.0088,-8.0348,-8.0285,-8.0393,-8.0403,-8.0552,-8.084,-8.0465,-8.0469,-8.0533,-8.1207,-8.126,-8.1317,-8.0815,-8.0824,-8.0832,-8.1195,0,-7.8963,-7.9333,-7.9352,-7.9691,-7.9869,-7.9825,-8.001,-8.013,-8.0184,-8.0345,-8.0406,-8.0591,-8.0492,-8.0557,-8.0702,-8.0774,-8.0977,-8.0748,-8.0989,-8.0997,-8.0956,-8.138,-8.1437,-8.1774,-8.1242,-8.125,-8.1256,0,-7.9413,-7.9561,-7.9916,-8.0051,-8.0127,-8.0293,-8.0466,-8.0619,-8.0755,-8.0784,-8.0905,-8.0894,-8.1115,-8.0969,-8.1277,-8.1121,-8.122,-8.1271,-8.1284,-8.1311,-8.1146,-8.1421,-8.1882,-8.1934,-8.1331,-8.1325,-8.1319,0,-7.9681,-7.997,-8.0221,-8.0295,-8.0458,-8.0576,-8.065,-8.0776,-8.0888,-8.104,-8.1113,-8.129,-8.1388,-8.1527,-8.1566,-8.1455,-8.1874,-8.173,-8.1908,-8.1908,-8.2001,-8.1996,-8.2488,-8.206,-8.2059,-8.2058,-8.2057,0,-8.0064,-8.0284,-8.0344,-8.0499,-8.0745,-8.0765,-8.101,-8.1076,-8.1189,-8.1359,-8.1332,-8.1493,-8.1532,-8.1701,-8.1733,-8.1985,-8.2029,-8.2062,-8.2068,-8.2066,-8.2063,-8.2134,-8.2113,-8.2072,-8.2069,-8.2066,-8.2064,0,-8.0407,-8.0455,-8.0726,-8.0857,-8.0895,-8.1072,-8.1186,-8.1336,-8.1386,-8.1601,-8.1653,-8.1733,-8.1931,-8.1982,-8.2219,-8.224,-8.2539,-8.2521,-8.2492,-8.2493,-8.2669,-8.2653,-8.3228,-8.3306,-8.2823,-8.2828,-8.2832,0,-8.0649,-8.0817,-8.0966,-8.1076,-8.1154,-8.1332,-8.1445,-8.1472,-8.1592,-8.176,-8.1891,-8.2084,-8.2241,-8.256,-8.2641,-8.2823,-8.2812,-8.3001,-8.284,-8.2833,-8.282,-8.281,-8.2829,-8.3033,-8.3038,-8.3042,-8.3046,0,-8.1076,-8.1091,-8.1253,-8.1425,-8.1559,-8.1697,-8.1828,-8.1921,-8.1967,-8.2103,-8.2303,-8.2424,-8.2665,-8.286,-8.3043,-8.3123,-8.3095,-8.3095,-8.3147,-8.3148,-8.3126,-8.3144,-8.2579,-8.3083,-8.3079,-8.3076,-8.3074,-8.3073,-8.1378,-8.1526,-8.1654,-8.1837,-8.1938,-8.2061,-8.2209,-8.2277,-8.2443,-8.264,-8.2646,-8.2865,-8.2999,-8.3242,-8.3332,-8.3506,-8.345,-8.3523,-8.3543,-8.3562,-8.3578,-8.3095,-8.3539,-8.3538,-8.3537,-8.3536,-8.3536,0,-8.1806,-8.1886,-8.2053,-8.2236,-8.2381,-8.2336,-8.248,-8.2605,-8.2797,-8.2922,-8.3076,-8.3308,-8.3497,-8.3592,-8.378,-8.3901,-8.3894,-8.395,-8.3944,-8.3963,-8.3616,-8.3555,-8.3954,-8.3954,-8.3954,-8.3953,-8.3953,-8.3953,-8.2046,-8.2295,-8.2326,-8.2626,-8.2705,-8.2917,-8.3003,-8.3119,-8.3219,-8.3478,-8.3633,-8.3693,-8.3809,-8.4004,-8.4176,-8.42,-8.4272,-8.4337,-8.4354,-8.403,-8.3987,-8.3947,-8.3889,-8.4351,-8.4352,-8.4687,-8.469,-8.4692]},{"header":{"parameterUnit":"m.s-1","parameterCategory":1,"la1":30.2991,"la2":30.254,"lo1":-89.0895,"lo2":-89.0444,"dy":0.0017,"dx":0.0017,"nx":28,"ny":28,"refTime":"2023-10-11T09:00:00:Z","depth":0,"parameterNumber":3,"parameterNumberName":"V-component_of_WINDS"},"data":[0,0,0,0,0,0,0,0,0,0,0,0,0,0,0,0,0,0,0,0,0,0,0,0,0,0,0,0,0,0,0,0,0,0,0,0,0,0,0,0,0,0,0,0,0,0,0,0,0,0,0,0,0,0,0,0,0,0,-7.7429,-7.7429,0,-7.7419,-7.7419,-7.7419,-7.7278,-7.7274,-7.727,-7.7267,-7.7258,-7.7261,-7.7264,0,0,0,0,0,0,0,0,0,0,0,0,0,-7.7323,-7.7325,-7.7429,-7.7429,-7.7428,-7.7419,-7.7419,-7.7419,-7.7278,-7.7274,-7.7269,-7.7265,-7.7257,-7.726,-7.7264,0,0,0,0,0,0,0,0,0,0,0,0,0,-7.7347,-7.7326,-7.7429,-7.7357,-7.7351,-7.7419,-7.7419,-7.7419,-7.7279,-7.7274,-7.7268,-7.7263,-7.7256,-7.726,-7.7265,-7.7401,0,0,-7.7279,-7.7281,0,0,0,0,0,0,0,0,-7.7345,-7.7351,-7.7368,-7.7362,-7.7355,-7.7344,-7.7378,-7.7413,-7.728,-7.7306,-7.7267,-7.7261,-7.7291,-7.7292,-7.7302,-7.7401,-7.7401,-7.7279,-7.7282,-7.7284,-7.7286,0,0,0,0,0,0,0,-7.7344,-7.735,-7.7425,-7.7368,-7.736,-7.7325,-7.7322,-7.7384,-7.7329,-7.7304,-7.7293,-7.7294,-7.7286,-7.7298,-7.7301,-7.74,-7.7279,-7.7283,-7.7286,-7.7288,-7.7607,-7.7612,0,0,0,0,0,0,-7.7352,-7.735,-7.7425,-7.7425,-7.7337,-7.7331,-7.7328,-7.7353,-7.7328,-7.7319,-7.7299,-7.7288,-7.7293,-7.7296,-7.73,-7.7456,-7.7284,-7.7289,-7.7291,-7.7601,-7.7608,-7.7614,0,0,0,0,0,0,-7.7351,-7.736,-7.7425,-7.7384,-7.739,-7.7338,-7.7368,-7.7356,-7.7367,-7.7324,-7.7314,-7.7321,-7.7289,-7.7294,-7.7376,-7.7454,-7.7291,-7.7295,-7.7595,-7.7604,-7.7611,-7.7771,0,0,0,0,0,0,-7.7348,-7.7361,-7.7413,-7.7387,-7.7393,-7.7503,-7.7372,-7.7359,-7.7376,-7.7361,-7.7342,-7.7334,-7.7285,-7.737,-7.7381,-7.7457,-7.7299,-7.7587,-7.7599,-7.7609,-7.7759,-7.7784,-7.7806,0,0,0,0,0,-7.7345,-7.7459,-7.7416,-7.7426,-7.7457,-7.7508,-7.7511,-7.7452,-7.7383,-7.7434,-7.7405,-7.7335,-7.7444,-7.738,-7.7391,-7.747,-7.7582,-7.7595,-7.7608,-7.7748,-7.7779,-7.7805,0,0,0,0,0,0,-7.7497,-7.7455,-7.7407,-7.7516,-7.7517,-7.7484,-7.7547,-7.7487,-7.7508,-7.7493,-7.7419,-7.7416,-7.751,-7.7498,-7.7428,-7.7599,-7.7501,-7.7516,-7.7604,-7.7633,-7.7656,-7.7656,-7.7302,0,0,0,0,0,-7.7544,-7.7589,-7.7549,-7.7649,-7.7652,-7.76,-7.762,-7.7574,-7.7571,-7.7571,-7.7549,-7.7549,-7.7583,-7.7607,-7.7636,-7.7756,-7.7749,-7.7816,-7.7839,-7.7859,-7.7873,-7.7933,-7.7962,-7.7656,-7.7656,-7.7656,0,0,-7.764,-7.7622,-7.7655,-7.7679,-7.7674,-7.7721,-7.7601,-7.7657,-7.7691,-7.758,-7.7656,-7.764,-7.7635,-7.7736,-7.778,-7.7729,-7.7956,-7.7875,-7.7891,-7.7895,-7.7949,-7.7978,-7.8004,-7.7665,-7.7663,-7.7662,0,0,-7.7839,-7.7831,-7.7912,-7.7909,-7.7902,-7.7866,-7.7886,-7.7861,-7.7846,-7.7921,-7.7837,-7.7877,-7.7937,-7.7936,-7.7944,-7.814,-7.8074,-7.8151,-7.8274,-7.8333,-7.8357,-7.8378,-7.8446,-7.8472,-7.8165,-7.8166,-7.8166,0,-7.796,-7.8028,-7.7961,-7.8022,-7.8034,-7.7934,-7.8014,-7.8014,-7.8018,-7.8028,-7.7971,-7.8043,-7.8033,-7.8132,-7.8179,-7.8189,-7.8208,-7.8153,-7.8359,-7.838,-7.8398,-7.8462,-7.8488,-7.8175,-7.8174,-7.8173,-7.8172,0,-7.8175,-7.8223,-7.8289,-7.8293,-7.8313,-7.8384,-7.8327,-7.8354,-7.8306,-7.8276,-7.8352,-7.8336,-7.8359,-7.8379,-7.8333,-7.847,-7.8439,-7.8372,-7.8271,-7.8438,-7.8496,-7.852,-7.8188,-7.8185,-7.8182,-7.818,0,0,-7.8472,-7.8436,-7.8461,-7.846,-7.8444,-7.848,-7.8544,-7.8566,-7.859,-7.8595,-7.8646,-7.8699,-7.8636,-7.8645,-7.8598,-7.865,-7.8803,-7.8576,-7.8574,-7.8617,-7.8951,-7.9001,-7.903,-7.876,-7.8764,-7.8768,-7.8951,0,-7.8662,-7.877,-7.8711,-7.8827,-7.8869,-7.8773,-7.8829,-7.8825,-7.8798,-7.883,-7.8799,-7.8837,-7.8752,-7.8756,-7.8804,-7.8775,-7.8869,-7.8761,-7.8806,-7.8809,-7.881,-7.9061,-7.9114,-7.9288,-7.8973,-7.8977,-7.898,0,-7.8899,-7.8912,-7.9033,-7.9005,-7.902,-7.9072,-7.9085,-7.9117,-7.9109,-7.9085,-7.9094,-7.9033,-7.9094,-7.8995,-7.9076,-7.9004,-7.9019,-7.9007,-7.9012,-7.9014,-7.8904,-7.9068,-7.9342,-7.9368,-7.9016,-7.9013,-7.901,0,-7.9101,-7.9149,-7.9226,-7.9228,-7.9199,-7.9237,-7.9226,-7.9213,-7.9229,-7.924,-7.9249,-7.9268,-7.9279,-7.9295,-7.9241,-7.9174,-7.9329,-7.9226,-7.931,-7.9312,-7.9347,-7.9346,-7.9626,-7.9359,-7.9359,-7.9358,-7.9358,0,-7.9319,-7.9396,-7.9316,-7.9363,-7.9445,-7.9376,-7.9459,-7.9438,-7.9427,-7.9468,-7.9387,-7.9427,-7.9354,-7.9386,-7.9345,-7.9417,-7.9423,-7.9405,-7.9393,-7.9412,-7.9414,-7.9421,-7.9407,-7.9365,-7.9364,-7.9362,-7.9361,0,-7.9559,-7.9509,-7.9586,-7.955,-7.9543,-7.9605,-7.9574,-7.9616,-7.9582,-7.9635,-7.9644,-7.9592,-7.9626,-7.9573,-7.9602,-7.9573,-7.9674,-7.9644,-7.9676,-7.9667,-7.9754,-7.9746,-8.0048,-8.0083,-7.9795,-7.9798,-7.98,0,-7.9701,-7.9758,-7.9727,-7.9748,-7.9741,-7.9777,-7.9791,-7.9724,-7.9743,-7.9736,-7.9779,-7.9806,-7.9824,-7.9883,-7.9847,-7.9868,-7.9838,-7.9942,-7.984,-7.9857,-7.9837,-7.9834,-7.9839,-7.9963,-7.9966,-7.9969,-7.9971,0,-7.9959,-7.993,-7.9953,-7.9968,-7.9987,-7.9996,-7.9998,-8.002,-7.9949,-7.9974,-8.0007,-8.0021,-8.0048,-8.0076,-8.0088,-8.0076,-8.0013,-8.0003,-8.0024,-8.0043,-8.0059,-8.005,-7.9732,-7.9997,-7.9994,-7.9992,-7.9991,-7.999,-8.0153,-8.0197,-8.0181,-8.021,-8.0204,-8.0207,-8.0244,-8.0214,-8.024,-8.0256,-8.0215,-8.0258,-8.0246,-8.0255,-8.025,-8.0282,-8.0237,-8.0267,-8.0274,-8.0283,-8.0296,-8.0055,-8.0285,-8.0284,-8.0283,-8.0282,-8.0282,0,-8.0404,-8.0388,-8.0415,-8.0419,-8.0442,-8.0377,-8.0376,-8.0399,-8.0437,-8.0431,-8.0449,-8.0486,-8.0512,-8.0478,-8.0497,-8.053,-8.0501,-8.0537,-8.0533,-8.0532,-8.0336,-8.0316,-8.056,-8.056,-8.056,-8.056,-8.056,-8.056,-8.0537,-8.0608,-8.0577,-8.0643,-8.0627,-8.0666,-8.0671,-8.0674,-8.0668,-8.0712,-8.0732,-8.0709,-8.0692,-8.0709,-8.0729,-8.0718,-8.0729,-8.0776,-8.0755,-8.0573,-8.0546,-8.052,-8.05,-8.0779,-8.0779,-8.0947,-8.0949,-8.095]}]]